QPF
0.08 0.10 0.11 0.10 0.08 0.12 0.13 0.14 0.13 0.15 0.11 0.09 0.07 0.07 0.06 0.04 0.03 0.03 0.03 0.03 0.03 0.03 0.02 0.01 0.01 0.01 0.01 0.01 0.00 0.00 0.00 0.00 0.00 0.00 0.00 0.00 0.00 0.00 0.00 0.00 0.00 0.00 0.00
0.07 0.09 0.11 0.16 0.11 0.12 0.15 0.17 0.16 0.18 0.17 0.13 0.10 0.08 0.07 0.05 0.05 0.06 0.05 0.04 0.04 0.05 0.04 0.03 0.02 0.02 0.02 0.02 0.01 0.01 0.01 0.00 0.00 0.00 0.00 0.00 0.00 0.01 0.01 0.01 0.01 0.01 0.01
0.09 0.11 0.11 0.16 0.17 0.14 0.18 0.18 0.17 0.19 0.21 0.20 0.16 0.10 0.08 0.08 0.08 0.07 0.07 0.05 0.04 0.05 0.05 0.05 0.05 0.04 0.03 0.03 0.03 0.02 0.01 0.01 0.01 0.01 0.00 0.01 0.01 0.01 0.02 0.01 0.01 0.01 0.01
0.10 0.11 0.12 0.14 0.17 0.17 0.20 0.23 0.23 0.24 0.23 0.21 0.19 0.17 0.14 0.12 0.10 0.09 0.08 0.07 0.08 0.07 0.08 0.08 0.08 0.08 0.07 0.06 0.04 0.03 0.02 0.02 0.02 0.01 0.01 0.01 0.01 0.01 0.02 0.03 0.03 0.03 0.02
0.20 0.18 0.16 0.18 0.23 0.25 0.27 0.28 0.23 0.20 0.20 0.20 0.19 0.19 0.17 0.15 0.12 0.10 0.09 0.08 0.08 0.09 0.09 0.08 0.07 0.08 0.07 0.07 0.06 0.04 0.04 0.03 0.03 0.02 0.01 0.01 0.01 0.02 0.03 0.03 0.04 0.04 0.03
0.19 0.19 0.19 0.20 0.24 0.30 0.32 0.32 0.28 0.22 0.21 0.23 0.22 0.20 0.18 0.13 0.12 0.12 0.10 0.09 0.11 0.12 0.09 0.06 0.05 0.05 0.05 0.06 0.07 0.07 0.05 0.03 0.02 0.02 0.01 0.01 0.01 0.02 0.02 0.03 0.03 0.03 0.02
0.13 0.15 0.16 0.18 0.21 0.28 0.33 0.31 0.28 0.25 0.25 0.25 0.21 0.17 0.15 0.12 0.11 0.10 0.09 0.10 0.09 0.07 0.06 0.05 0.04 0.04 0.05 0.04 0.05 0.05 0.04 0.03 0.02 0.02 0.01 0.01 0.01 0.01 0.02 0.02 0.02 0.02 0.02
0.10 0.12 0.14 0.14 0.14 0.17 0.20 0.21 0.22 0.23 0.21 0.19 0.17 0.13 0.11 0.09 0.08 0.07 0.07 0.06 0.06 0.06 0.06 0.05 0.04 0.03 0.03 0.03 0.02 0.02 0.03 0.03 0.04 0.03 0.02 0.02 0.02 0.02 0.03 0.03 0.03 0.02 0.02
0.09 0.11 0.13 0.13 0.14 0.16 0.18 0.21 0.20 0.18 0.16 0.13 0.11 0.09 0.08 0.07 0.06 0.06 0.07 0.07 0.07 0.06 0.05 0.04 0.04 0.04 0.05 0.03 0.02 0.02 0.02 0.02 0.03 0.02 0.02 0.02 0.02 0.02 0.01 0.02 0.02 0.03 0.03
0.11 0.12 0.13 0.14 0.13 0.15 0.15 0.15 0.14 0.14 0.13 0.11 0.09 0.08 0.07 0.05 0.05 0.04 0.04 0.04 0.04 0.03 0.03 0.03 0.02 0.02 0.02 0.02 0.02 0.02 0.03 0.03 0.03 0.03 0.03 0.02 0.01 0.01 0.01 0.01 0.01 0.01 0.01
0.14 0.14 0.13 0.13 0.15 0.17 0.16 0.13 0.12 0.12 0.10 0.09 0.08 0.06 0.04 0.03 0.03 0.02 0.02 0.02 0.01 0.01 0.01 0.01 0.00 0.00 0.01 0.01 0.01 0.02 0.02 0.02 0.01 0.01 0.01 0.01 0.00 0.00 0.00 0.00 0.01 0.01 0.01
0.13 0.14 0.14 0.12 0.13 0.14 0.13 0.12 0.11 0.09 0.07 0.06 0.05 0.04 0.03 0.02 0.01 0.01 0.00 0.00 0.00 0.00 0.00 0.00 0.00 0.00 0.00 0.00 0.00 0.00 0.00 0.00 0.00 0.00 0.00 0.00 0.00 0.00 0.00 0.00 0.00 0.01 0.01
0.08 0.08 0.08 0.08 0.07 0.06 0.08 0.09 0.10 0.09 0.09 0.07 0.05 0.03 0.02 0.01 0.00 0.00 0.00 0.00 0.00 0.00 0.00 0.00 0.00 0.00 0.00 0.00 0.00 0.00 0.00 0.00 0.00 0.00 0.00 0.00 0.00 0.00 0.00 0.00 0.00 0.00 0.00
0.07 0.06 0.04 0.03 0.02 0.03 0.03 0.05 0.07 0.06 0.06 0.05 0.04 0.02 0.02 0.01 0.01 0.00 0.00 0.00 0.00 0.00 0.00 0.00 0.00 0.00 0.00 0.00 0.00 0.00 0.00 0.00 0.00 0.00 0.00 0.00 0.00 0.00 0.00 0.00 0.00 0.00 0.00
0.02 0.02 0.02 0.02 0.01 0.01 0.02 0.02 0.02 0.03 0.03 0.03 0.02 0.02 0.02 0.02 0.02 0.01 0.01 0.00 0.00 0.00 0.00 0.00 0.00 0.00 0.00 0.00 0.00 0.00 0.00 0.00 0.00 0.00 0.00 0.00 0.00 0.00 0.00 0.00 0.00 0.00 0.00
0.02 0.01 0.01 0.01 0.00 0.00 0.00 0.00 0.00 0.00 0.00 0.00 0.00 0.00 0.00 0.00 0.01 0.01 0.01 0.02 0.02 0.01 0.01 0.01 0.00 0.00 0.00 0.00 0.00 0.00 0.00 0.00 0.00 0.00 0.00 0.00 0.01 0.01 0.01 0.00 0.00 0.00 0.00
0.02 0.01 0.01 0.00 0.00 0.00 0.00 0.00 0.00 0.00 0.00 0.00 0.00 0.00 0.00 0.00 0.00 0.00 0.00 0.00 0.00 0.00 0.00 0.00 0.00 0.00 0.00 0.00 0.00 0.00 0.00 0.00 0.00 0.00 0.00 0.01 0.01 0.00 0.00 0.00 0.00 0.00 0.00
0.03 0.03 0.02 0.01 0.01 0.00 0.00 0.00 0.01 0.01 0.01 0.01 0.01 0.01 0.01 0.01 0.00 0.00 0.00 0.00 0.00 0.00 0.00 0.00 0.00 0.00 0.00 0.00 0.00 0.00 0.00 0.00 0.00 0.00 0.00 0.00 0.00 0.00 0.00 0.00 0.00 0.00 0.00
0.03 0.04 0.05 0.04 0.03 0.03 0.02 0.02 0.02 0.02 0.02 0.02 0.02 0.01 0.01 0.01 0.00 0.00 0.00 0.00 0.00 0.00 0.00 0.00 0.00 0.00 0.00 0.00 0.00 0.00 0.00 0.00 0.00 0.00 0.00 0.00 0.00 0.00 0.00 0.00 0.00 0.00 0.00
0.01 0.02 0.02 0.02 0.02 0.02 0.02 0.02 0.02 0.01 0.01 0.01 0.00 0.00 0.00 0.00 0.00 0.00 0.00 0.00 0.00 0.00 0.00 0.00 0.00 0.00 0.00 0.00 0.00 0.00 0.00 0.00 0.00 0.00 0.00 0.00 0.00 0.00 0.00 0.01 0.01 0.01 0.00
0.00 0.01 0.01 0.01 0.00 0.00 0.00 0.00 0.00 0.00 0.00 0.00 0.00 0.00 0.00 0.00 0.00 0.00 0.00 0.00 0.00 0.00 0.00 0.00 0.00 0.00 0.00 0.00 0.00 0.00 0.00 0.00 0.00 0.00 0.00 0.00 0.00 0.00 0.00 0.01 0.01 0.01 0.01
0.00 0.00 0.00 0.00 0.00 0.00 0.00 0.00 0.00 0.00 0.00 0.00 0.00 0.00 0.00 0.01 0.01 0.00 0.00 0.00 0.00 0.00 0.00 0.00 0.00 0.00 0.00 0.00 0.00 0.00 0.00 0.00 0.00 0.00 0.00 0.00 0.00 0.00 0.00 0.00 0.00 0.01 0.01
0.00 0.00 0.00 0.00 0.00 0.00 0.00 0.00 0.00 0.00 0.00 0.00 0.00 0.00 0.00 0.00 0.00 0.00 0.00 0.00 0.00 0.00 0.00 0.00 0.00 0.00 0.00 0.00 0.00 0.00 0.00 0.00 0.00 0.00 0.00 0.00 0.00 0.00 0.00 0.00 0.01 0.01 0.01
0.00 0.00 0.00 0.00 0.00 0.00 0.00 0.00 0.00 0.00 0.00 0.00 0.00 0.00 0.00 0.00 0.00 0.00 0.00 0.00 0.00 0.00 0.00 0.00 0.00 0.00 0.00 0.00 0.00 0.00 0.00 0.00 0.00 0.00 0.00 0.00 0.01 0.01 0.01 0.01 0.01 0.01 0.01
0.00 0.00 0.00 0.00 0.00 0.00 0.00 0.00 0.00 0.00 0.00 0.00 0.00 0.00 0.00 0.00 0.00 0.00 0.00 0.00 0.00 0.00 0.00 0.00 0.00 0.00 0.00 0.00 0.00 0.00 0.00 0.00 0.00 0.00 0.00 0.00 0.01 0.01 0.01 0.01 0.01 0.01 0.01
0.00 0.00 0.00 0.00 0.00 0.00 0.00 0.00 0.00 0.00 0.00 0.00 0.00 0.00 0.00 0.00 0.00 0.00 0.00 0.00 0.00 0.00 0.00 0.00 0.00 0.00 0.00 0.00 0.00 0.00 0.00 0.00 0.00 0.00 0.00 0.00 0.00 0.00 0.01 0.01 0.01 0.01 0.01
MSLP
1008.00 1008.50 1009.18 1009.97 1010.80 1011.61 1012.37 1013.04 1013.64 1014.17 1014.65 1015.09 1015.51 1015.89 1016.25 1016.57 1016.85 1017.09 1017.30 1017.49 1017.67 1017.86 1018.06 1018.27 1018.48 1018.68 1018.86 1018.99 1019.07 1019.10 1019.08 1019.02 1018.91 1018.78 1018.62 1018.45 1018.25 1018.05 1017.84 1017.65 1017.47 1017.33 1017.23
1008.16 1008.62 1009.26 1010.01 1010.81 1011.61 1012.37 1013.06 1013.67 1014.20 1014.67 1015.09 1015.46 1015.81 1016.12 1016.40 1016.66 1016.90 1017.12 1017.33 1017.54 1017.75 1017.96 1018.16 1018.35 1018.52 1018.66 1018.76 1018.83 1018.86 1018.86 1018.82 1018.77 1018.69 1018.59 1018.45 1018.29 1018.09 1017.88 1017.65 1017.42 1017.22 1017.05
1008.56 1009.02 1009.62 1010.32 1011.08 1011.84 1012.57 1013.23 1013.82 1014.33 1014.77 1015.15 1015.49 1015.78 1016.05 1016.30 1016.54 1016.77 1017.00 1017.24 1017.48 1017.72 1017.95 1018.17 1018.35 1018.51 1018.63 1018.71 1018.75 1018.77 1018.77 1018.75 1018.72 1018.68 1018.61 1018.51 1018.37 1018.18 1017.96 1017.71 1017.45 1017.19 1016.96
1009.15 1009.61 1010.18 1010.84 1011.54 1012.24 1012.92 1013.54 1014.09 1014.57 1014.98 1015.32 1015.61 1015.86 1016.09 1016.31 1016.53 1016.75 1017.00 1017.26 1017.53 1017.80 1018.06 1018.30 1018.50 1018.66 1018.77 1018.83 1018.85 1018.85 1018.83 1018.81 1018.78 1018.74 1018.69 1018.61 1018.49 1018.32 1018.10 1017.84 1017.56 1017.27 1016.99
1009.80 1010.28 1010.82 1011.43 1012.07 1012.71 1013.33 1013.91 1014.43 1014.88 1015.27 1015.60 1015.86 1016.09 1016.29 1016.48 1016.67 1016.89 1017.13 1017.40 1017.70 1018.00 1018.29 1018.56 1018.78 1018.94 1019.05 1019.09 1019.10 1019.07 1019.03 1018.98 1018.93 1018.89 1018.83 1018.76 1018.65 1018.49 1018.29 1018.04 1017.76 1017.45 1017.14
1010.38 1010.88 1011.41 1011.98 1012.57 1013.16 1013.74 1014.29 1014.80 1015.25 1015.64 1015.97 1016.24 1016.46 1016.64 1016.81 1016.99 1017.19 1017.42 1017.69 1017.99 1018.30 1018.62 1018.90 1019.14 1019.32 1019.42 1019.46 1019.45 1019.39 1019.32 1019.24 1019.17 1019.10 1019.03 1018.96 1018.86 1018.72 1018.54 1018.30 1018.03 1017.72 1017.40
1010.79 1011.30 1011.83 1012.38 1012.94 1013.50 1014.07 1014.62 1015.15 1015.63 1016.06 1016.43 1016.73 1016.96 1017.15 1017.31 1017.47 1017.64 1017.85 1018.09 1018.38 1018.70 1019.01 1019.31 1019.56 1019.75 1019.86 1019.89 1019.87 1019.79 1019.69 1019.58 1019.47 1019.38 1019.30 1019.22 1019.12 1019.00 1018.83 1018.62 1018.37 1018.07 1017.74
1010.97 1011.51 1012.05 1012.59 1013.14 1013.71 1014.29 1014.88 1015.46 1016.02 1016.52 1016.95 1017.30 1017.57 1017.78 1017.94 1018.08 1018.22 1018.39 1018.60 1018.86 1019.15 1019.46 1019.75 1020.01 1020.20 1020.32 1020.36 1020.33 1020.24 1020.12 1019.99 1019.86 1019.74 1019.64 1019.55 1019.45 1019.33 1019.18 1018.99 1018.75 1018.46 1018.12
1010.97 1011.54 1012.10 1012.65 1013.22 1013.82 1014.45 1015.11 1015.77 1016.41 1017.00 1017.51 1017.93 1018.25 1018.49 1018.65 1018.77 1018.88 1019.01 1019.18 1019.40 1019.66 1019.94 1020.23 1020.48 1020.69 1020.82 1020.87 1020.84 1020.75 1020.62 1020.48 1020.33 1020.19 1020.07 1019.96 1019.85 1019.73 1019.58 1019.39 1019.15 1018.86 1018.51
1010.90 1011.50 1012.09 1012.67 1013.28 1013.92 1014.62 1015.35 1016.09 1016.82 1017.50 1018.10 1018.59 1018.96 1019.22 1019.39 1019.49 1019.58 1019.67 1019.80 1019.98 1020.20 1020.47 1020.74 1021.00 1021.21 1021.35 1021.42 1021.40 1021.32 1021.20 1021.04 1020.88 1020.72 1020.58 1020.44 1020.31 1020.17 1020.00 1019.79 1019.53 1019.22 1018.85
1010.92 1011.55 1012.16 1012.77 1013.42 1014.12 1014.87 1015.67 1016.48 1017.29 1018.04 1018.70 1019.24 1019.65 1019.94 1020.11 1020.21 1020.27 1020.34 1020.44 1020.58 1020.79 1021.03 1021.30 1021.55 1021.77 1021.93 1022.01 1022.02 1021.95 1021.83 1021.68 1021.51 1021.33 1021.16 1020.99 1020.82 1020.64 1020.43 1020.17 1019.88 1019.53 1019.12
1011.16 1011.80 1012.44 1013.08 1013.76 1014.49 1015.29 1016.12 1016.98 1017.83 1018.62 1019.31 1019.88 1020.31 1020.60 1020.78 1020.88 1020.94 1020.99 1021.08 1021.21 1021.40 1021.64 1021.90 1022.15 1022.38 1022.55 1022.65 1022.67 1022.62 1022.51 1022.36 1022.17 1021.98 1021.77 1021.57 1021.34 1021.10 1020.83 1020.52 1020.17 1019.76 1019.31
1011.70 1012.35 1013.00 1013.66 1014.35 1015.10 1015.90 1016.74 1017.60 1018.44 1019.22 1019.91 1020.47 1020.90 1021.20 1021.38 1021.49 1021.55 1021.61 1021.70 1021.84 1022.03 1022.26 1022.52 1022.78 1023.01 1023.19 1023.30 1023.34 1023.29 1023.19 1023.03 1022.84 1022.62 1022.38 1022.13 1021.85 1021.55 1021.21 1020.82 1020.39 1019.92 1019.41
1012.54 1013.19 1013.84 1014.49 1015.18 1015.91 1016.68 1017.49 1018.30 1019.10 1019.83 1020.48 1021.01 1021.42 1021.70 1021.89 1022.01 1022.09 1022.18 1022.29 1022.44 1022.64 1022.88 1023.14 1023.40 1023.63 1023.81 1023.92 1023.95 1023.92 1023.81 1023.65 1023.45 1023.21 1022.94 1022.65 1022.32 1021.95 1021.53 1021.08 1020.57 1020.03 1019.45
1013.60 1014.24 1014.87 1015.51 1016.17 1016.85 1017.57 1018.31 1019.05 1019.76 1020.42 1021.00 1021.48 1021.85 1022.13 1022.32 1022.46 1022.57 1022.68 1022.82 1023.00 1023.22 1023.46 1023.72 1023.97 1024.19 1024.36 1024.45 1024.48 1024.44 1024.33 1024.17 1023.96 1023.71 1023.42 1023.09 1022.71 1022.29 1021.82 1021.29 1020.71 1020.09 1019.45
1014.74 1015.35 1015.96 1016.56 1017.18 1017.81 1018.46 1019.11 1019.76 1020.38 1020.96 1021.46 1021.88 1022.22 1022.48 1022.68 1022.84 1022.99 1023.14 1023.31 1023.51 1023.74 1023.98 1024.23 1024.46 1024.65 1024.79 1024.87 1024.88 1024.83 1024.72 1024.56 1024.35 1024.09 1023.80 1023.45 1023.04 1022.58 1022.06 1021.47 1020.84 1020.15 1019.43
1015.77 1016.36 1016.93 1017.51 1018.08 1018.66 1019.24 1019.82 1020.39 1020.92 1021.42 1021.86 1022.23 1022.55 1022.80 1023.01 1023.19 1023.37 1023.55 1023.74 1023.96 1024.19 1024.42 1024.64 1024.84 1025.00 1025.11 1025.16 1025.15 1025.09 1024.98 1024.82 1024.62 1024.37 1024.08 1023.72 1023.31 1022.82 1022.27 1021.64 1020.95 1020.21 1019.42
1016.56 1017.12 1017.68 1018.22 1018.77 1019.31 1019.84 1020.37 1020.88 1021.36 1021.81 1022.21 1022.55 1022.85 1023.11 1023.33 1023.54 1023.74 1023.94 1024.15 1024.36 1024.58 1024.78 1024.97 1025.13 1025.24 1025.31 1025.34 1025.31 1025.24 1025.13 1024.98 1024.79 1024.56 1024.28 1023.93 1023.51 1023.02 1022.44 1021.78 1021.05 1020.26 1019.41
1017.07 1017.60 1018.14 1018.67 1019.20 1019.73 1020.25 1020.76 1021.25 1021.71 1022.14 1022.52 1022.87 1023.17 1023.44 1023.68 1023.91 1024.12 1024.33 1024.53 1024.73 1024.92 1025.09 1025.23 1025.34 1025.41 1025.45 1025.44 1025.39 1025.32 1025.21 1025.07 1024.90 1024.68 1024.41 1024.07 1023.65 1023.15 1022.56 1021.88 1021.11 1020.27 1019.38
1017.29 1017.81 1018.33 1018.87 1019.41 1019.95 1020.49 1021.01 1021.51 1021.99 1022.43 1022.83 1023.19 1023.51 1023.80 1024.06 1024.30 1024.52 1024.72 1024.90 1025.07 1025.22 1025.35 1025.44 1025.51 1025.54 1025.53 1025.50 1025.44 1025.36 1025.26 1025.13 1024.96 1024.75 1024.48 1024.14 1023.72 1023.21 1022.60 1021.89 1021.10 1020.23 1019.30
1017.35 1017.84 1018.37 1018.91 1019.48 1020.05 1020.63 1021.19 1021.73 1022.24 1022.72 1023.15 1023.54 1023.89 1024.20 1024.47 1024.70 1024.91 1025.10 1025.26 1025.39 1025.49 1025.57 1025.62 1025.64 1025.64 1025.61 1025.56 1025.49 1025.40 1025.29 1025.16 1024.99 1024.77 1024.49 1024.14 1023.70 1023.16 1022.53 1021.81 1020.99 1020.10 1019.15
1017.36 1017.84 1018.37 1018.93 1019.53 1020.14 1020.75 1021.36 1021.94 1022.50 1023.02 1023.49 1023.91 1024.28 1024.60 1024.87 1025.10 1025.29 1025.45 1025.57 1025.66 1025.73 1025.76 1025.78 1025.77 1025.73 1025.69 1025.62 1025.54 1025.44 1025.32 1025.17 1024.98 1024.74 1024.43 1024.04 1023.57 1023.00 1022.34 1021.59 1020.77 1019.87 1018.92
1017.47 1017.94 1018.47 1019.04 1019.65 1020.29 1020.94 1021.58 1022.20 1022.79 1023.34 1023.83 1024.27 1024.65 1024.97 1025.23 1025.44 1025.61 1025.73 1025.82 1025.88 1025.90 1025.91 1025.90 1025.87 1025.82 1025.76 1025.68 1025.59 1025.47 1025.33 1025.15 1024.93 1024.64 1024.29 1023.86 1023.34 1022.73 1022.04 1021.28 1020.44 1019.55 1018.63
1017.78 1018.24 1018.75 1019.32 1019.94 1020.58 1021.23 1021.89 1022.52 1023.12 1023.67 1024.16 1024.60 1024.96 1025.27 1025.51 1025.70 1025.83 1025.93 1025.98 1026.01 1026.02 1026.01 1025.98 1025.94 1025.88 1025.82 1025.73 1025.63 1025.49 1025.32 1025.11 1024.84 1024.50 1024.09 1023.60 1023.04 1022.40 1021.68 1020.90 1020.08 1019.22 1018.34
1018.31 1018.75 1019.24 1019.79 1020.38 1021.00 1021.63 1022.26 1022.87 1023.45 1023.98 1024.45 1024.86 1025.20 1025.47 1025.69 1025.84 1025.95 1026.02 1026.05 1026.06 1026.06 1026.04 1026.01 1025.97 1025.91 1025.84 1025.76 1025.64 1025.48 1025.28 1025.03 1024.71 1024.32 1023.86 1023.33 1022.72 1022.05 1021.32 1020.55 1019.74 1018.92 1018.10
1019.02 1019.42 1019.88 1020.39 1020.94 1021.51 1022.09 1022.67 1023.23 1023.75 1024.24 1024.66 1025.03 1025.33 1025.57 1025.75 1025.88 1025.96 1026.01 1026.03 1026.04 1026.03 1026.01 1025.98 1025.95 1025.90 1025.83 1025.74 1025.61 1025.44 1025.21 1024.92 1024.57 1024.14 1023.64 1023.08 1022.45 1021.76 1021.04 1020.28 1019.51 1018.74 1017.99
Thickness
5743 5741 5740 5738 5736 5735 5733 5732 5732 5731 5730 5728 5726 5724 5722 5720 5719 5717 5716 5715 5713 5712 5712 5711 5710 5710 5709 5709 5708 5707 5705 5702 5698 5701 5706 5709 5710 5710 5709 5708 5706 5704 5702
5743 5741 5739 5737 5735 5733 5731 5731 5730 5729 5727 5725 5723 5720 5719 5717 5716 5714 5712 5712 5710 5708 5707 5706 5706 5706 5704 5703 5702 5701 5700 5699 5696 5694 5697 5700 5702 5703 5702 5701 5700 5699 5698
5742 5739 5736 5734 5732 5730 5729 5728 5727 5725 5722 5721 5718 5716 5714 5712 5711 5710 5709 5708 5706 5705 5703 5702 5701 5700 5698 5697 5696 5695 5694 5694 5692 5689 5689 5691 5692 5694 5693 5693 5693 5692 5691
5740 5737 5734 5732 5730 5728 5726 5724 5722 5720 5717 5715 5713 5711 5709 5707 5706 5706 5704 5703 5701 5700 5698 5697 5696 5695 5693 5691 5690 5688 5688 5686 5685 5682 5681 5681 5681 5683 5682 5681 5680 5681 5681
5737 5734 5732 5730 5727 5724 5722 5720 5717 5714 5712 5709 5707 5705 5703 5701 5700 5699 5699 5697 5695 5693 5692 5690 5689 5688 5687 5686 5684 5681 5680 5677 5675 5673 5671 5670 5670 5669 5668 5669 5668 5669 5671
5735 5731 5729 5726 5723 5720 5717 5714 5710 5707 5704 5702 5699 5696 5694 5693 5692 5693 5692 5690 5689 5686 5684 5682 5680 5679 5678 5678 5676 5674 5672 5668 5666 5663 5661 5659 5659 5658 5657 5657 5655 5654 5655
5731 5728 5725 5722 5718 5715 5712 5708 5704 5700 5696 5693 5690 5687 5685 5683 5684 5685 5684 5682 5679 5676 5674 5672 5670 5668 5667 5666 5665 5663 5661 5659 5657 5653 5650 5648 5647 5647 5645 5644 5642 5640 5641
5725 5722 5720 5717 5713 5709 5705 5701 5696 5692 5687 5683 5680 5678 5676 5674 5675 5675 5674 5671 5668 5665 5662 5659 5657 5655 5654 5653 5652 5650 5647 5645 5644 5641 5639 5637 5636 5635 5633 5631 5629 5628 5628
5717 5715 5713 5710 5707 5702 5697 5693 5688 5683 5677 5672 5669 5667 5665 5663 5664 5664 5663 5660 5656 5652 5650 5647 5646 5643 5642 5641 5639 5635 5633 5630 5630 5628 5626 5624 5622 5621 5619 5616 5614 5612 5610
5709 5706 5703 5701 5698 5693 5688 5683 5678 5674 5668 5663 5658 5655 5653 5651 5652 5652 5651 5648 5643 5639 5637 5635 5633 5631 5629 5627 5624 5620 5617 5614 5613 5612 5610 5608 5606 5604 5602 5598 5595 5592 5590
5700 5697 5693 5690 5686 5683 5678 5673 5668 5663 5658 5652 5647 5643 5641 5639 5639 5639 5638 5635 5631 5627 5624 5621 5619 5618 5616 5613 5609 5604 5600 5598 5596 5594 5591 5588 5586 5583 5581 5578 5575 5572 5569
5690 5686 5682 5679 5676 5671 5667 5661 5657 5652 5647 5641 5636 5631 5627 5626 5626 5625 5624 5622 5619 5615 5611 5608 5606 5604 5601 5598 5593 5589 5586 5583 5578 5574 5570 5566 5563 5561 5558 5556 5553 5551 5548
5679 5674 5670 5666 5662 5658 5655 5650 5645 5640 5635 5629 5624 5619 5614 5613 5612 5611 5610 5608 5606 5602 5597 5595 5592 5588 5585 5580 5576 5572 5567 5562 5557 5552 5547 5543 5540 5538 5536 5534 5532 5530 5528
5665 5659 5655 5652 5647 5643 5639 5636 5633 5628 5623 5617 5612 5607 5602 5599 5598 5597 5595 5593 5591 5587 5583 5579 5575 5570 5566 5561 5556 5551 5546 5541 5535 5529 5524 5521 5518 5516 5514 5511 5509 5507 5505
5650 5645 5641 5637 5632 5627 5622 5618 5617 5614 5613 5607 5600 5596 5592 5587 5584 5584 5582 5578 5575 5571 5567 5562 5556 5550 5544 5539 5534 5529 5524 5519 5513 5508 5503 5499 5496 5493 5491 5488 5486 5484 5481
5638 5632 5627 5623 5619 5615 5610 5603 5600 5599 5597 5594 5590 5585 5580 5577 5574 5571 5568 5565 5561 5556 5550 5541 5534 5528 5523 5517 5512 5507 5502 5497 5492 5488 5483 5479 5475 5473 5470 5468 5467 5464 5463
5629 5622 5617 5612 5608 5603 5599 5595 5587 5582 5581 5578 5575 5572 5569 5565 5561 5558 5554 5549 5544 5540 5531 5522 5515 5509 5504 5498 5493 5488 5483 5478 5474 5470 5466 5462 5458 5456 5453 5451 5450 5449 5448
5618 5614 5608 5602 5597 5592 5588 5584 5580 5575 5569 5563 5561 5559 5555 5551 5547 5543 5539 5534 5526 5520 5512 5505 5499 5493 5487 5482 5476 5471 5466 5461 5457 5453 5449 5446 5443 5440 5438 5437 5436 5436 5436
5607 5603 5598 5593 5588 5583 5578 5573 5568 5563 5558 5552 5548 5545 5542 5537 5533 5528 5523 5515 5508 5501 5495 5490 5484 5478 5472 5466 5461 5455 5450 5445 5441 5437 5434 5431 5428 5426 5425 5425 5425 5425 5425
5597 5594 5590 5585 5579 5574 5569 5564 5558 5552 5546 5541 5536 5531 5527 5523 5516 5510 5505 5499 5492 5486 5480 5475 5469 5463 5457 5452 5446 5441 5436 5431 5427 5423 5420 5418 5417 5415 5414 5414 5414 5415 5416
5587 5584 5581 5575 5570 5565 5560 5554 5548 5542 5535 5529 5523 5520 5516 5509 5501 5495 5489 5483 5478 5472 5467 5461 5455 5450 5444 5439 5434 5428 5423 5419 5415 5412 5409 5408 5407 5406 5405 5405 5406 5407 5408
5577 5573 5569 5565 5560 5554 5549 5543 5537 5530 5523 5517 5510 5506 5502 5495 5487 5481 5475 5470 5465 5460 5455 5450 5444 5438 5433 5428 5422 5417 5412 5408 5405 5403 5400 5399 5398 5398 5398 5398 5399 5400 5402
5567 5563 5557 5553 5548 5543 5536 5530 5523 5516 5510 5504 5498 5492 5486 5480 5473 5468 5463 5458 5453 5449 5444 5439 5434 5428 5422 5418 5413 5408 5404 5400 5397 5395 5392 5391 5391 5390 5391 5391 5393 5395 5397
5557 5553 5547 5541 5535 5529 5522 5516 5510 5504 5498 5492 5486 5480 5473 5467 5462 5457 5452 5447 5443 5439 5434 5429 5424 5418 5413 5408 5404 5400 5396 5393 5391 5388 5386 5385 5384 5384 5385 5386 5388 5390 5393
5547 5541 5536 5529 5523 5516 5510 5504 5498 5492 5486 5481 5475 5469 5463 5457 5452 5447 5443 5439 5434 5429 5424 5419 5414 5410 5405 5400 5397 5393 5390 5388 5385 5383 5382 5380 5379 5379 5380 5382 5384 5386 5389
5536 5530 5524 5518 5511 5505 5499 5492 5486 5481 5475 5470 5465 5459 5453 5448 5443 5439 5435 5430 5426 5421 5416 5411 5407 5402 5398 5394 5390 5387 5385 5382 5380 5379 5377 5376 5375 5376 5376 5378 5380 5382 5385